Aswan, Egypt

8:06 AM EET on March 23, 2017 (GMT +0200)
Aswan International

Weather History for HESN - October, 2012

Change the Weather History Date:

Friday, October 5, 2012

  Actual Average Record
Temperature  
Mean Temperature 90 °F -  
Max Temperature 102 °F 91 °F 111 °F (2010)
Min Temperature 79 °F 69 °F 69 °F (2013)
Cooling Degree Days 26    
Growing Degree Days 40 (Base 50)    
Moisture  
Dew Point 46 °F    
Average Humidity 21    
Maximum Humidity 31    
Minimum Humidity 8    
Precipitation  
Precipitation 0.00 in 0.00 in - ()
Sea Level Pressure  
Sea Level Pressure 29.86 in    
Wind  
Wind Speed 9 mph ()    
Max Wind Speed 14 mph    
Max Gust Speed -    
Visibility 6.0 miles    
Events      
Averages and records for this station are not official NWS values.
T = Trace of Precipitation, MM = Missing Value Source: Averaged Metar Reports

Daily Weather History Graph

Daily Weather History Graph

Search for Another Location

Airport or City:

Trip Planner

Search our weather history database for the weather conditions in past years. The results will help you decide how hot, cold, wet, or windy it might be!

Date:

Astronomy

Oct. 05, 2012 Rise Set
Actual Time 5:42 AM EET 5:31 PM EET
Civil Twilight 5:19 AM EET 5:54 PM EET
Nautical Twilight 4:53 AM EET 6:20 PM EET
Astronomical Twilight 4:27 AM EET 6:46 PM EET
Moon 9:08 PM EET (10/5) 10:03 AM EET (10/5)
Length of Visible Light 12h 34m
Length of Day
11h 49m
Waning Gibbous, 76% of the Moon is Illuminated
Oct 5
Waning Gibbous
Oct 8
Last Quarter
Oct 15
New
Oct 22
First Quarter
Oct 29
Full

Hourly Weather History & Observations

Time (EET) Temp. Dew Point Humidity Pressure Visibility Wind Dir Wind Speed Gust Speed Precip Events Conditions
12:00 AM 84.2 °F 41.0 °F 22% 29.86 in - North 8.1 mph - N/A   Clear
1:00 AM 84.2 °F 41.0 °F 22% 29.86 in - North 8.1 mph - N/A   Clear
2:00 AM 82 °F 41 °F 14% 29.84 in 6 mi North 6.9 mph - -  
2:00 AM 82.4 °F 41.0 °F 23% 29.86 in - North 6.9 mph - N/A   Clear
3:00 AM 82.4 °F 42.8 °F 25% 29.86 in - North 9.2 mph - N/A   Clear
4:00 AM 80.6 °F 44.6 °F 28% 29.86 in - North 8.1 mph - N/A   Clear
5:00 AM 80.6 °F 44.6 °F 28% 29.89 in - North 8.1 mph - N/A   Clear
6:00 AM 80.6 °F 46.4 °F 30% 29.89 in - NNW 9.2 mph - N/A   Clear
7:00 AM 82.4 °F 46.4 °F 28% 29.89 in - North 11.5 mph - N/A   Clear
8:00 AM 85 °F 47 °F 17% 29.88 in 6 mi North 12.7 mph - -   Partly Cloudy
8:00 AM 86.0 °F 46.4 °F 25% 29.92 in - North 12.7 mph - N/A   Clear
9:00 AM 87.8 °F 48.2 °F 25% 29.92 in - North 13.8 mph - N/A   Clear
10:00 AM 91.4 °F 48.2 °F 23% 29.92 in - North 11.5 mph - N/A   Clear
11:00 AM 95.0 °F 48.2 °F 20% 29.89 in - NNE 11.5 mph - N/A   Clear
12:00 PM 96.8 °F 48.2 °F 19% 29.86 in - North 11.5 mph - N/A   Clear
1:00 PM 98.6 °F 46.4 °F 17% 29.83 in - North 12.7 mph - N/A   Clear
2:00 PM 101 °F 46 °F 8% 29.80 in 6 mi North 11.5 mph - -   Scattered Clouds
2:00 PM 100.4 °F 46.4 °F 16% 29.83 in - North 11.5 mph - N/A   Clear
3:00 PM 102.2 °F 44.6 °F 14% 29.83 in - NNE 12.7 mph - N/A   Clear
4:00 PM 100.4 °F 46.4 °F 16% 29.83 in - North 13.8 mph - N/A   Clear
5:00 PM 98.6 °F 44.6 °F 16% 29.83 in - North 12.7 mph - N/A   Clear
6:00 PM 95.0 °F 46.4 °F 19% 29.83 in - North 13.8 mph - N/A   Clear
7:00 PM 93.2 °F 44.6 °F 19% 29.86 in - North 9.2 mph - N/A   Clear
8:00 PM 90 °F 47 °F 14% 29.84 in 6 mi North 11.5 mph - -  
8:00 PM 89.6 °F 46.4 °F 22% 29.86 in - North 11.5 mph - N/A   Clear
9:00 PM 89.6 °F 50.0 °F 26% 29.89 in - North 11.5 mph - N/A   Clear
10:00 PM 87.8 °F 50.0 °F 27% 29.89 in - North 13.8 mph - N/A   Clear
11:00 PM 86.0 °F 51.8 °F 31% 29.89 in - North 13.8 mph - N/A   Clear